Regional Weather Roundup
Issued by NWS Midland/Odessa, TX

Skip options and go directly to product.
Home | Oldest Version | Next Version | Current Version | All | Text Only | Save Text | Print | Product List | Glossary On

Skip product version selection by date and time.   
118
ASUS44 KMAF 280701
RWRMAF
MIDLAND AREA WEATHER ROUNDUP
NATIONAL WEATHER SERVICE MIDLAND TX
200 AM CDT SAT MAR 28 2015

...IN SOUTHWEST TEXAS AND SOUTHEAST NEW MEXICO...

CITY           SKY/WX    TMP DP  RH WIND       PRES   REMARKS
ALPINE         CLEAR     57  18  21 SW9       30.27S
ANDREWS        FAIR      56  35  45 S12       30.12F
ARTESIA        CLEAR     50  27  40 CALM      30.09F
BIG SPRING     CLEAR     60  32  34 S13       30.13S
CARLSBAD       CLEAR     56  28  34 E6        30.08S
DRYDEN           N/A     57  39  51 N7        30.12F
FORT STOCKTON  CLEAR     55  37  50 S12       30.13S
GUAD PASS      CLEAR     62  17  17 W20       30.22F
HOBBS          CLEAR     55  28  35 S13       30.12F
MARFA          CLEAR     37  30  75 N7        30.25S WCI  32
MIDLAND AIRPK  CLEAR     62  33  33 S13       30.12F
MIDLAND INTL   CLEAR     61  35  37 S14       30.11F
ODESSA         CLEAR     59  35  40 S10       30.12F
PECOS          CLEAR     51  37  59 W7        30.10S
PRESIDIO       FAIR      60  32  35 N8        30.14F
SEMINOLE       CLEAR     56  34  43 S13       30.12F
SNYDER         CLEAR     56  34  43 S10       30.10F
WINK           CLEAR     52  35  52 SE6       30.09F
$$
...OTHER STATIONS IN TEXAS...

CITY           SKY/WX    TMP DP  RH WIND       PRES   REMARKS
ABILENE        CLEAR     55  39  54 SE13      30.11F
AMARILLO       PTCLDY    49  34  56 S13       30.11F
AUSTIN         CLEAR     48  44  86 CALM      30.14S
BROWNSVILLE    CLEAR     53  50  89 S5        30.20F
CORPUS CHRISTI CLEAR     58  54  86 S7        30.16F
DALLAS FTW     PTCLDY    51  39  63 SE3       30.15F
DEL RIO        CLEAR     59  41  51 E7        30.13F
EL PASO        CLEAR     64  19  17 SE9       30.14F
HOUSTON INT    CLEAR     55  45  68 CALM      30.16F
LUBBOCK        CLEAR     50  37  61 SE10      30.09F
SAN ANGELO     CLEAR     55  36  48 S7        30.11F
SAN ANTONIO    CLEAR     55  43  63 NW3       30.15S
WACO           CLEAR     47  42  83 E3        30.16F
WICHITA FALLS  NOT AVBL
$$
...OTHER LOCATIONS IN NEW MEXICO...

CITY           SKY/WX    TMP DP  RH WIND       PRES   REMARKS
ALAMAGORDO     CLEAR     55  23  28 SE9       30.15S
ALBUQUERQUE    CLEAR     59  17  19 SW7       30.20S
CANNON AFB     NOT AVBL
CLOVIS         CLEAR     45  30  57 SW6       30.09F
HOLLOMAN AFB   NOT AVBL
ROSWELL        CLEAR     59  25  27 W8        30.09S
RUIDOSO        CLEAR     50  16  25 W8        30.28S
SANTA FE       CLEAR     45  19  35 NE3       30.22F
TRUTH OR CONSE CLEAR     56  16  20 CALM      30.17S
TUCUMCARI      CLEAR     47  29  49 N6        30.06F
$$

USA.gov is the U.S. government's official web portal to all federal, state and local government web resources and services.